Temp
62 62 61 61 61 61 61 61 61 62 62 62 63 63 63 63 62 74 84 90 88 75 75 97 95 97 101 97 101 102 85 82 83 78 70 99 95 101 103 97 97 98 97 96 96
61 61 61 61 61 61 61 61 61 61 62 62 62 63 63 63 74 85 87 77 77 76 92 94 92 97 94 95 97 93 85 86 97 97 94 97 97 98 96 96 93 93 97 97 96
61 61 61 61 61 61 60 61 61 61 62 62 62 62 63 65 79 92 77 77 76 80 98 101 101 99 92 97 97 95 87 95 97 98 100 97 97 100 96 92 96 90 92 94 94
60 61 61 60 61 60 60 60 61 61 61 61 61 62 63 74 78 94 77 76 77 94 95 97 97 93 90 90 99 90 97 98 99 99 98 96 100 96 97 98 103 97 96 95 93
60 60 60 60 60 60 60 60 60 60 60 61 61 62 67 80 89 89 77 78 91 92 94 95 93 93 88 94 97 94 96 99 101 100 100 99 96 95 97 103 104 100 96 94 95
59 59 59 59 59 59 59 59 59 59 60 62 62 63 77 81 100 96 98 94 97 95 96 99 97 99 94 94 94 98 97 97 100 99 100 96 97 99 100 104 102 98 96 96 96
59 59 59 59 59 59 59 59 58 59 62 64 63 74 85 91 103 101 100 98 101 102 98 103 104 98 97 92 99 97 90 94 95 97 96 100 91 93 102 103 99 98 97 97 97
58 58 58 59 59 59 59 59 59 61 66 64 64 81 85 105 107 102 103 100 105 105 103 105 104 97 95 99 95 90 90 82 94 97 98 96 83 96 103 100 98 98 99 98 98
58 58 58 58 59 59 58 58 60 64 67 65 75 81 88 91 98 103 104 98 100 101 102 104 99 92 94 87 83 87 78 82 87 98 97 94 86 96 103 100 97 98 98 99 98
58 58 57 58 58 58 57 58 66 65 71 85 88 84 93 92 99 102 105 103 96 96 94 92 91 85 87 84 72 78 81 85 84 94 94 90 89 95 99 99 98 99 99 99 99
58 58 57 57 58 57 62 85 81 79 83 86 89 90 95 102 104 98 102 98 97 92 82 89 82 79 84 88 88 87 84 82 88 95 91 88 88 92 97 99 99 99 99 100 99
58 58 57 57 57 57 63 86 86 89 78 94 95 97 100 100 90 95 102 90 88 81 87 85 78 88 92 92 87 85 81 81 87 92 89 87 86 92 95 96 98 99 99 101 101
57 57 57 57 56 67 89 89 97 95 78 89 95 94 94 97 90 92 96 92 87 83 85 81 87 92 88 86 82 82 79 81 81 88 90 86 82 86 93 97 99 100 101 102 101
56 56 56 56 64 87 89 96 99 95 70 82 88 93 96 95 88 101 100 93 90 83 86 86 92 88 85 82 85 77 88 86 83 80 73 87 70 83 89 90 94 97 99 100 101
56 57 56 55 68 83 91 98 98 89 59 85 89 103 98 89 94 93 102 94 85 86 87 83 86 85 82 83 88 81 89 85 84 79 78 79 75 81 90 86 91 95 98 97 99
56 57 56 72 70 86 97 96 90 70 62 81 89 86 86 89 91 95 93 97 95 87 89 86 94 89 87 90 89 90 85 83 82 79 67 76 76 78 83 87 91 92 94 95 97
56 56 56 74 84 96 96 87 69 64 87 80 82 87 85 84 86 88 85 82 79 73 74 83 85 90 91 83 89 85 77 66 65 67 66 79 77 80 88 92 91 89 91 93 96
54 54 66 79 92 93 88 76 61 78 81 89 87 86 80 86 85 85 83 79 85 83 79 75 72 85 90 85 81 81 78 68 58 62 66 77 70 80 90 93 93 91 90 91 92
53 83 85 90 90 91 79 67 71 79 86 82 84 78 79 85 85 84 82 82 86 86 75 74 76 89 89 90 88 81 76 85 72 74 69 75 81 84 87 87 87 86 86 86 88
62 75 86 96 94 84 74 63 77 85 85 84 74 81 75 81 80 81 81 87 83 87 87 79 70 85 88 89 89 83 87 72 74 59 57 70 68 69 77 79 82 82 82 83 86
68 77 89 97 91 79 67 74 82 88 84 80 78 78 80 80 82 80 81 84 86 85 86 83 76 76 85 79 78 81 77 78 76 72 62 60 68 81 79 80 79 80 81 82 83
72 72 93 95 74 78 74 80 65 82 85 82 82 80 79 81 78 79 75 77 83 84 77 79 74 68 75 86 88 84 78 76 66 64 70 68 68 83 81 81 81 79 80 81 82
67 76 93 89 68 74 81 80 81 80 79 79 78 81 83 77 72 79 76 81 83 81 72 77 71 63 67 77 83 78 79 79 76 73 64 61 67 83 83 79 80 78 80 81 82
67 70 81 83 81 74 73 75 76 81 79 79 79 81 77 74 79 75 77 78 81 78 67 71 70 66 62 68 75 71 75 78 73 65 66 68 72 78 77 75 76 77 79 79 79
69 73 75 69 75 76 77 75 74 73 79 80 76 77 75 70 74 74 78 76 78 67 74 73 63 69 72 74 75 73 73 74 71 72 65 70 71 76 74 75 76 77 77 76 76
66 68 72 71 74 71 66 71 73 76 74 73 72 77 77 71 73 68 72 77 74 76 74 72 62 67 65 72 72 69 73 74 74 74 73 73 71 74 75 76 73 73 74 74 74
70 74 69 65 71 69 71 73 74 77 76 77 75 74 72 70 76 76 76 75 74 72 70 68 65 62 57 69 69 62 71 73 73 76 72 66 68 72 70 70 70 71 73 69 70
MSLP
1019.84 1019.37 1018.79 1018.14 1017.66 1017.08 1016.60 1016.02 1015.45 1015.07 1014.60 1014.18 1013.82 1013.53 1013.38 1013.24 1012.90 1012.29 1009.89 1007.97 1007.98 1008.36 1008.76 1007.97 1007.90 1006.93 1006.04 1004.99 1004.18 1003.52 1002.74 1001.26 1001.26 1001.64 1002.58 1000.22 1000.08 1000.67 1001.35 1001.82 1002.85 1003.63 1003.99 1005.50 1006.99
1019.97 1019.34 1018.69 1018.12 1017.43 1016.79 1016.35 1015.86 1015.32 1014.82 1014.30 1013.89 1013.55 1013.35 1013.27 1013.23 1012.08 1009.75 1007.53 1007.51 1007.88 1008.30 1008.41 1007.35 1006.76 1006.05 1005.21 1004.17 1003.56 1003.07 1001.99 1000.74 1000.02 999.88 999.89 1000.07 1000.00 1000.43 1000.98 1001.22 1002.47 1003.83 1005.01 1006.02 1006.92
1019.97 1019.35 1018.79 1018.00 1017.19 1016.67 1016.17 1015.73 1015.04 1014.38 1013.90 1013.50 1013.29 1013.17 1013.15 1013.07 1010.75 1007.19 1007.50 1007.59 1007.84 1008.18 1007.53 1006.47 1005.63 1005.02 1004.39 1003.43 1002.44 1001.97 1001.00 1000.26 1000.01 1000.55 1000.11 999.98 1000.00 1000.53 1000.58 1000.77 1001.54 1003.17 1004.88 1006.13 1006.82
1019.99 1019.32 1018.56 1017.77 1017.20 1016.63 1015.90 1015.28 1014.52 1013.87 1013.47 1013.13 1013.03 1013.01 1013.04 1012.35 1008.57 1006.91 1007.60 1007.79 1007.96 1007.91 1007.64 1006.20 1005.29 1004.36 1003.91 1002.65 1001.74 1001.35 1000.81 1000.35 1000.00 1000.52 1000.34 1000.09 1000.21 1000.29 1000.66 1000.64 1001.22 1003.07 1004.57 1005.60 1006.43
1020.00 1019.26 1018.43 1017.80 1017.28 1016.38 1015.47 1014.76 1014.05 1013.47 1013.10 1012.78 1012.76 1012.82 1012.78 1010.21 1006.75 1007.12 1007.59 1007.89 1008.00 1008.04 1006.93 1005.66 1004.89 1004.15 1003.40 1002.35 1001.36 1000.84 1000.59 1000.08 999.98 1000.25 1000.15 1000.39 1000.43 1000.49 1000.31 1000.37 1001.46 1003.10 1004.48 1005.30 1005.87
1019.92 1019.10 1018.45 1017.73 1016.80 1015.90 1015.06 1014.38 1013.68 1013.09 1012.70 1012.39 1012.49 1012.63 1011.38 1007.69 1005.75 1006.67 1006.69 1007.41 1006.98 1007.05 1006.08 1005.01 1004.30 1003.66 1003.04 1002.15 1001.29 1000.64 1000.71 1000.35 999.98 999.87 999.78 999.96 999.99 999.86 1000.04 1000.22 1001.24 1002.78 1004.07 1004.87 1005.41
1019.90 1019.08 1018.13 1017.17 1016.34 1015.55 1014.75 1014.04 1013.32 1012.78 1012.36 1012.08 1012.19 1011.79 1009.12 1005.62 1005.24 1006.24 1006.33 1006.53 1006.17 1005.53 1004.82 1004.48 1003.96 1003.52 1003.17 1002.49 1001.71 1001.20 1001.10 1000.93 1000.50 1000.00 999.61 999.54 999.75 999.33 999.60 999.85 1000.87 1002.03 1003.18 1004.10 1004.94
1019.65 1018.85 1017.94 1016.95 1015.94 1015.09 1014.46 1013.75 1012.96 1012.41 1012.08 1012.03 1012.03 1010.98 1006.93 1004.73 1004.76 1005.55 1005.81 1005.82 1005.29 1005.12 1004.81 1004.41 1004.37 1004.13 1003.41 1002.86 1002.03 1001.69 1001.51 1000.76 999.89 999.36 999.08 999.60 999.61 998.92 999.02 999.51 1000.36 1001.27 1002.01 1002.94 1003.99
1019.64 1018.75 1017.73 1016.66 1015.67 1014.83 1014.17 1013.27 1012.44 1011.95 1011.81 1011.82 1011.40 1009.73 1005.50 1005.45 1004.86 1004.82 1005.22 1004.98 1005.20 1005.27 1005.25 1004.84 1004.93 1004.39 1003.82 1003.02 1002.38 1001.42 1000.86 1000.09 999.36 998.64 998.46 999.08 999.22 998.67 998.52 999.24 999.75 1000.17 1000.90 1001.63 1002.73
1019.46 1018.46 1017.50 1016.52 1015.49 1014.70 1013.69 1012.24 1011.70 1011.78 1011.33 1010.46 1009.37 1008.06 1005.03 1004.25 1004.17 1004.53 1004.85 1004.72 1005.02 1005.09 1005.12 1005.25 1004.75 1004.06 1003.30 1002.51 1001.72 1000.73 1000.00 999.51 998.95 998.14 998.35 999.03 999.15 999.02 998.95 999.26 998.99 999.37 1000.02 1000.47 1001.30
1019.45 1018.52 1017.53 1016.34 1015.20 1014.51 1013.40 1011.08 1011.47 1010.71 1009.37 1007.13 1005.94 1004.65 1003.44 1003.32 1003.85 1004.37 1004.47 1004.79 1004.86 1004.88 1004.56 1004.39 1003.86 1002.80 1002.25 1001.83 1001.47 1000.63 1000.18 999.78 998.96 998.57 998.67 998.77 999.17 998.86 998.61 998.41 998.42 998.65 999.35 999.57 1000.09
1019.45 1018.48 1017.37 1016.05 1014.84 1013.69 1013.74 1010.50 1009.66 1009.06 1007.49 1005.45 1004.58 1003.74 1003.31 1003.51 1003.77 1003.89 1004.37 1004.49 1004.41 1004.15 1004.00 1003.34 1002.90 1001.93 1001.37 1001.02 1001.15 1001.11 1001.01 1000.64 1000.02 999.63 999.69 999.48 999.27 999.04 998.98 998.52 998.34 998.35 998.88 998.96 999.30
1019.37 1018.33 1017.25 1015.58 1014.36 1012.68 1010.67 1009.50 1008.83 1008.30 1007.23 1003.90 1003.35 1003.17 1003.39 1003.61 1002.99 1003.08 1003.97 1003.88 1003.61 1003.54 1002.91 1002.19 1001.17 1001.33 1001.42 1001.36 1001.75 1001.82 1001.48 1000.89 1000.54 1000.08 999.77 999.62 999.24 998.92 998.63 998.34 998.16 998.33 998.63 999.03 999.40
1019.16 1018.24 1017.31 1015.70 1014.11 1011.20 1009.18 1008.77 1008.25 1008.35 1006.75 1002.98 1002.64 1002.11 1002.68 1003.24 1002.59 1002.25 1003.26 1003.39 1002.64 1002.47 1001.94 1001.66 1001.25 1001.15 1001.60 1001.66 1001.71 1001.39 1001.04 1001.00 1000.94 1000.65 1000.23 999.59 998.62 997.73 997.56 997.76 997.97 998.37 998.74 999.14 999.71
1018.78 1017.98 1017.07 1017.44 1014.89 1011.07 1009.19 1008.64 1008.56 1008.31 1004.98 1002.12 1001.64 1001.78 1002.05 1002.45 1001.25 1001.96 1002.50 1002.95 1002.27 1001.75 1001.75 1001.13 1000.88 1001.08 1001.21 1001.40 1001.37 1001.40 1001.13 1001.18 1001.23 1001.14 1000.92 1000.14 999.15 997.68 996.89 997.18 997.58 998.23 998.92 999.82 1000.15
1018.07 1017.66 1017.02 1014.27 1014.22 1010.64 1009.17 1008.80 1008.49 1007.20 1002.99 1001.15 1001.32 1001.69 1001.80 1001.88 1001.36 1001.43 1002.16 1002.81 1002.21 1002.12 1001.43 1001.27 1001.00 1001.18 1001.13 1001.13 1001.43 1001.48 1001.62 1001.95 1001.90 1001.60 1000.88 999.93 999.29 997.72 996.95 997.23 997.88 999.07 999.98 1000.75 1001.11
1017.32 1016.35 1016.97 1014.65 1010.75 1009.60 1009.25 1008.66 1007.32 1004.45 1001.03 1000.57 1000.82 1000.93 1001.30 1001.38 1001.20 1001.50 1002.01 1002.30 1002.18 1001.96 1001.29 1000.91 1000.79 1000.79 1001.37 1001.17 1001.14 1001.73 1002.08 1001.82 1001.40 1000.79 999.91 999.07 998.84 997.69 997.63 998.12 999.05 1000.00 1000.99 1001.75 1001.95
1016.78 1014.76 1013.03 1012.29 1010.45 1009.98 1009.32 1008.22 1005.85 1002.36 1000.50 1000.34 1000.30 1000.71 1000.83 1000.63 1000.86 1001.18 1001.58 1001.71 1001.95 1001.54 1000.68 999.97 999.83 1000.03 1000.66 1001.06 1000.82 1001.19 1001.66 1001.54 1000.99 1000.59 1000.22 1000.22 999.25 998.03 998.29 998.87 999.96 1001.13 1002.20 1002.94 1003.54
1016.27 1012.59 1011.10 1009.97 1010.32 1009.90 1008.99 1006.72 1003.98 1002.24 1001.11 1000.78 1000.94 1000.70 1000.52 1000.05 1000.25 1000.68 1001.03 1000.87 1000.77 1001.21 1001.28 1000.67 1000.06 1000.26 1000.61 1000.75 1000.98 1000.74 1000.82 1001.15 1001.37 1001.52 1000.96 1000.06 999.25 999.64 999.72 1000.52 1001.75 1002.98 1003.99 1004.51 1004.95
1016.47 1012.77 1009.45 1008.75 1009.39 1009.57 1008.34 1005.95 1003.74 1002.78 1002.60 1002.07 1001.41 1000.82 1000.23 999.98 1000.33 1000.40 1000.62 1000.62 1001.09 1001.76 1002.13 1001.87 1001.50 1000.67 1000.67 1001.46 1001.41 1001.28 1001.26 1001.63 1001.86 1002.13 1001.78 1000.73 1001.33 1001.65 1001.74 1002.38 1003.42 1004.41 1005.41 1006.05 1006.28
1015.88 1011.34 1008.65 1008.36 1009.10 1008.65 1007.01 1004.92 1003.58 1003.01 1003.60 1003.03 1002.32 1001.41 1000.52 1000.04 1000.08 1000.62 1000.63 1001.25 1001.90 1002.58 1003.04 1003.00 1002.94 1002.06 1001.24 1001.50 1001.13 1000.93 1001.66 1002.08 1002.39 1002.72 1002.50 1002.17 1001.95 1002.31 1002.88 1003.54 1004.62 1005.85 1006.69 1007.19 1007.49
1014.79 1010.56 1008.18 1008.36 1008.34 1007.04 1005.76 1004.66 1004.66 1003.85 1003.81 1003.77 1003.32 1002.61 1001.64 1001.21 1000.88 1000.79 1002.00 1002.75 1003.75 1003.76 1003.88 1004.66 1004.27 1003.46 1002.55 1001.74 1001.73 1001.70 1002.14 1002.75 1003.30 1003.61 1003.45 1003.26 1003.07 1003.48 1004.15 1005.06 1005.85 1006.87 1007.68 1008.09 1008.35
1015.41 1011.07 1008.02 1008.25 1007.25 1005.96 1004.85 1004.70 1004.63 1004.36 1004.48 1004.01 1003.75 1003.36 1003.03 1002.70 1002.52 1002.27 1003.07 1004.56 1004.73 1004.80 1005.92 1005.76 1005.42 1004.91 1003.95 1003.07 1002.28 1002.39 1002.99 1003.33 1003.91 1004.33 1004.51 1004.32 1003.76 1003.94 1004.71 1005.90 1007.03 1007.66 1008.28 1008.57 1008.74
1016.10 1010.81 1007.93 1007.77 1007.44 1006.87 1005.73 1004.65 1004.64 1005.15 1005.26 1005.11 1004.57 1004.22 1004.23 1003.99 1003.64 1003.54 1003.60 1005.04 1005.56 1006.29 1007.21 1007.30 1006.57 1006.11 1005.19 1003.79 1004.05 1003.91 1003.60 1003.71 1004.28 1004.61 1004.59 1004.38 1004.13 1004.29 1005.45 1006.67 1007.55 1008.29 1008.96 1009.34 1009.54
1015.88 1011.23 1010.16 1008.30 1007.29 1006.84 1006.39 1005.97 1005.08 1005.00 1005.61 1005.55 1005.28 1005.09 1004.80 1004.64 1004.05 1004.18 1004.48 1005.44 1006.41 1007.41 1007.71 1007.97 1007.54 1007.02 1006.26 1005.56 1004.90 1004.60 1004.34 1004.18 1004.28 1004.56 1004.87 1005.14 1005.18 1005.60 1006.93 1007.72 1008.33 1008.98 1009.72 1010.22 1010.42
1015.75 1013.25 1011.98 1010.43 1009.29 1008.66 1007.54 1006.73 1005.97 1005.29 1005.79 1005.70 1005.93 1005.38 1005.42 1005.62 1005.24 1005.26 1005.60 1005.03 1005.91 1007.23 1007.74 1008.29 1008.32 1007.88 1007.13 1006.48 1005.91 1005.17 1004.76 1004.53 1004.55 1004.78 1004.99 1005.58 1006.08 1007.52 1008.48 1009.17 1009.79 1010.34 1010.56 1010.72 1010.91
1016.61 1014.91 1014.01 1011.59 1009.92 1009.06 1007.90 1007.01 1006.62 1006.53 1006.73 1006.87 1006.94 1006.70 1006.85 1007.62 1007.26 1007.27 1007.33 1007.37 1007.30 1007.48 1007.91 1008.47 1008.74 1008.64 1007.71 1006.99 1006.15 1005.19 1004.42 1004.25 1004.78 1005.01 1005.65 1006.25 1007.89 1008.90 1009.80 1010.43 1010.90 1010.98 1011.21 1011.71 1011.99
Wind_Speed
20 21 20 20 19 18 19 19 19 18 17 16 15 14 12 11 12 8 11 3 7 15 0 10 13 16 15 18 17 17 13 6 14 24 29 7 13 13 3 12 15 12 13 17 19
21 21 21 21 21 20 19 19 19 17 17 16 15 13 11 8 10 15 6 12 12 12 11 15 14 15 13 14 15 11 12 16 11 11 8 9 10 10 7 12 17 15 16 17 18
22 21 21 22 22 21 20 19 19 18 17 17 15 12 9 8 10 5 7 9 13 14 17 17 15 13 14 17 15 16 12 14 8 10 11 9 3 3 3 4 16 20 17 17 17
23 23 22 22 22 22 21 20 19 20 18 16 13 9 6 8 3 7 9 8 9 13 14 17 16 14 14 17 17 15 14 8 3 8 5 3 6 0 2 4 12 20 18 17 17
22 23 23 23 22 22 21 21 20 20 18 14 10 6 6 9 5 11 10 8 11 11 15 15 16 15 15 18 16 17 12 12 5 5 8 4 7 6 9 11 17 19 17 16 16
22 23 24 24 24 23 22 22 20 19 17 10 6 6 7 12 13 15 14 13 13 14 16 15 13 15 17 19 18 10 12 15 11 10 12 10 11 9 8 12 13 18 16 15 16
22 23 25 25 25 24 23 23 21 19 14 5 6 6 11 7 18 13 15 13 15 16 13 13 15 14 11 15 11 15 11 12 14 15 15 9 8 13 10 16 12 17 16 16 15
24 24 25 26 27 26 24 23 21 17 9 1 5 7 9 4 5 15 14 13 11 9 11 9 6 12 14 14 19 11 12 17 17 18 17 6 13 20 15 14 14 15 14 16 16
24 24 26 27 28 27 25 23 20 13 8 4 6 7 9 4 10 12 13 11 7 7 8 7 7 13 15 13 13 13 14 19 20 18 14 12 12 16 12 13 11 15 14 15 17
25 26 27 28 29 27 27 19 3 8 7 10 11 10 10 11 13 10 12 10 8 8 10 9 9 12 14 13 12 17 18 15 13 18 11 9 16 13 11 19 13 11 12 15 17
25 26 27 29 29 26 16 5 6 8 11 12 11 11 6 12 11 11 9 8 10 8 12 13 11 13 17 19 17 20 14 15 15 7 9 5 8 16 15 13 14 10 11 11 16
25 27 28 30 30 30 9 8 6 8 11 16 17 12 1 9 11 13 11 11 12 11 14 10 13 16 15 12 7 11 11 14 15 14 13 15 15 15 15 18 12 11 8 10 11
24 26 28 32 32 13 10 4 7 7 8 12 12 14 12 8 13 16 16 16 11 13 15 16 14 10 7 6 6 12 12 13 13 12 11 11 15 16 17 19 12 14 6 7 10
24 25 26 32 7 11 7 3 7 5 6 12 12 8 14 13 14 16 15 13 10 13 15 11 14 7 6 10 10 12 14 14 11 12 9 12 14 14 19 17 14 14 5 12 6
25 25 26 13 13 8 8 8 8 4 6 17 12 9 12 15 10 11 17 17 17 10 7 12 12 9 8 11 9 11 8 9 7 9 12 15 10 12 1 17 11 10 2 13 14
27 24 24 2 8 14 10 9 7 7 9 10 10 12 16 18 8 14 14 15 11 15 11 15 4 4 10 11 11 8 4 8 11 12 12 16 13 12 1 8 9 18 16 14 14
30 32 14 9 6 11 9 6 7 10 3 11 11 15 17 16 14 10 15 15 12 10 15 16 16 13 7 10 10 8 9 8 10 11 12 9 14 12 8 13 18 17 16 14 14
33 35 7 9 9 10 7 7 9 14 10 6 4 12 15 16 16 13 14 13 16 18 15 12 15 17 13 8 8 14 11 9 13 12 8 12 7 9 17 15 17 18 15 13 13
33 7 7 8 12 5 7 10 10 10 13 4 10 9 12 17 10 14 14 14 18 16 9 8 5 12 6 3 7 7 12 12 11 12 12 9 11 20 19 19 18 16 14 13 11
11 10 11 8 5 5 7 15 15 7 6 6 13 13 14 15 12 9 14 12 8 8 5 5 6 7 11 1 9 10 10 5 6 8 10 10 7 5 11 14 13 14 13 10 10
6 7 7 5 6 7 9 15 11 6 6 7 11 17 12 10 19 15 9 10 4 6 4 8 4 13 6 6 12 6 10 7 9 7 8 9 4 9 12 12 13 11 10 9 8
6 6 7 4 7 8 12 10 6 6 3 8 7 13 10 13 7 7 13 9 5 5 2 6 2 9 15 16 14 8 10 10 7 9 9 10 7 12 11 10 10 9 7 6 6
7 10 8 5 8 9 13 6 2 5 7 5 6 8 7 9 4 11 13 7 5 4 6 5 5 7 13 13 15 9 6 8 7 3 9 10 9 11 9 14 9 8 8 6 6
7 6 7 6 11 12 14 4 9 4 9 3 10 5 9 8 12 7 9 6 3 10 4 5 4 7 10 18 13 11 13 8 10 7 10 12 15 10 11 10 5 6 8 12 13
6 3 6 7 4 9 7 11 10 7 7 3 8 10 10 9 12 12 9 12 5 6 3 2 6 11 14 15 16 15 16 16 17 15 15 15 17 12 13 10 10 9 9 12 13
7 7 9 12 12 10 8 9 12 8 1 5 7 10 4 5 8 13 12 6 6 12 6 7 5 8 13 15 16 19 19 20 19 17 17 16 14 13 14 14 15 15 15 15 13
11 10 6 8 11 7 11 10 11 8 5 6 10 8 4 10 11 9 8 7 8 4 2 5 5 7 12 13 15 15 14 11 10 17 5 6 11 12 10 12 13 16 16 16 16
Wind_Direction
345 339 333 331 329 329 325 323 321 316 311 304 301 297 298 303 295 230 248 256 176 176 109 192 220 243 246 254 248 263 273 276 233 125 231 170 121 96 90 114 73 63 97 129 138
341 337 333 327 329 328 325 321 315 312 307 301 297 294 295 306 267 257 210 132 140 155 203 212 211 223 229 243 245 231 260 261 25 24 90 86 69 127 194 156 126 107 106 125 149
340 335 330 327 329 325 321 316 313 314 307 300 293 289 286 283 273 174 157 143 155 175 219 221 234 222 238 246 235 226 263 312 100 26 342 63 177 54 83 248 153 134 135 145 156
337 333 329 327 325 320 318 316 318 317 309 298 287 280 275 245 323 97 156 163 164 196 231 254 246 238 247 251 245 236 268 296 45 141 241 312 24 294 162 2 98 126 143 152 162
333 330 328 324 320 319 319 319 319 315 308 296 272 248 225 226 228 134 143 149 169 202 224 233 234 245 241 252 250 239 267 284 222 230 232 65 263 210 281 139 115 128 150 159 166
333 330 325 322 322 323 321 318 318 313 306 287 237 183 248 255 98 147 153 165 181 206 227 232 233 241 262 265 278 250 244 264 295 232 250 206 240 219 221 135 131 142 163 168 170
331 328 326 325 323 323 321 318 315 308 303 283 192 235 260 284 135 167 158 185 222 215 232 235 253 281 261 274 286 281 289 269 256 255 248 246 273 259 263 150 155 155 170 172 177
333 330 326 324 324 323 320 316 309 299 297 252 175 246 283 103 204 166 180 201 229 233 278 256 270 283 271 284 283 274 261 262 261 245 246 193 272 279 194 154 168 172 175 173 175
331 329 326 325 322 321 317 312 296 280 264 189 221 234 250 133 198 176 189 204 190 227 241 321 280 252 257 242 262 240 250 239 245 251 221 194 246 271 151 169 206 181 183 180 173
332 329 326 323 320 320 320 296 227 288 224 223 263 265 227 197 183 166 196 207 195 211 220 222 229 239 235 258 238 247 225 231 254 266 187 229 271 249 210 232 196 205 207 187 179
331 328 324 321 318 320 337 276 214 197 229 257 138 253 151 170 144 187 195 212 201 211 222 200 224 228 228 225 246 271 309 304 309 324 312 238 278 295 297 275 269 186 226 219 183
330 326 323 320 317 315 284 286 33 328 296 266 248 235 283 144 181 190 181 199 199 217 217 204 229 251 238 256 341 316 299 277 291 303 299 291 276 257 262 269 266 274 269 258 196
329 326 324 320 318 293 273 24 304 312 267 251 200 218 199 217 211 188 185 218 190 218 208 246 238 204 311 290 247 264 266 281 269 287 291 278 261 259 253 262 242 268 229 322 309
327 325 326 327 294 330 290 344 326 29 274 195 192 213 179 207 233 187 184 216 223 234 242 225 260 227 224 248 255 251 238 230 268 278 272 285 303 244 217 222 237 243 207 239 356
324 323 322 320 310 281 7 322 345 252 278 143 159 117 173 202 210 199 174 221 254 224 260 238 224 253 244 252 228 259 347 338 294 282 288 279 262 270 293 182 197 171 177 64 47
322 322 328 202 208 253 299 314 274 234 246 147 138 191 177 214 212 171 181 221 252 259 249 261 259 284 249 224 244 291 282 259 262 256 253 249 254 277 73 164 128 78 77 65 70
320 313 305 292 270 340 311 265 237 249 115 153 170 179 186 195 220 171 194 200 225 215 238 223 236 218 216 261 196 205 248 256 233 224 240 301 215 241 77 88 85 90 79 59 59
321 309 233 226 293 271 279 234 246 263 229 66 156 173 196 199 217 186 191 218 218 258 279 235 199 193 178 228 246 200 226 258 300 308 342 200 253 253 107 115 101 94 87 81 62
315 303 238 231 219 272 255 228 235 262 351 125 201 243 223 233 202 190 224 211 213 204 258 320 135 86 118 201 240 252 238 233 278 294 280 289 287 13 82 85 85 89 81 74 79
315 291 257 146 162 245 247 249 279 335 334 326 285 204 233 219 181 229 207 235 116 34 18 326 312 170 141 191 261 274 304 301 244 253 268 277 42 80 108 109 106 95 87 69 54
266 271 107 221 177 237 242 244 265 112 4 287 276 291 268 261 200 227 231 94 64 120 300 289 298 286 239 217 247 214 213 241 258 281 316 310 64 101 73 101 100 92 73 65 43
299 274 115 204 232 229 239 251 335 290 180 273 267 298 311 316 300 227 63 65 52 2 248 47 324 280 278 310 326 308 301 309 296 277 280 293 304 101 119 99 100 96 80 57 50
296 294 265 229 253 243 248 238 223 287 269 271 243 252 316 293 299 270 98 83 61 58 33 20 219 254 257 251 251 250 291 267 274 276 268 281 284 136 128 121 73 48 36 1 16
280 288 197 204 264 290 296 284 228 169 296 283 291 358 277 245 257 269 127 109 80 75 17 320 281 270 281 304 324 285 282 230 237 253 275 269 284 295 89 95 88 47 14 2 360
246 288 18 298 9 323 296 302 304 203 202 219 254 248 241 248 238 215 264 116 159 134 210 325 260 262 268 275 288 294 289 286 282 280 271 274 282 316 48 33 36 37 17 351 345
300 346 355 302 292 299 284 268 258 263 109 242 241 299 257 258 317 8 354 183 182 159 228 139 275 293 278 281 277 269 266 263 263 270 273 272 272 43 36 22 13 357 346 333 340
10 323 259 290 288 258 259 254 259 280 82 312 330 328 220 23 1 7 353 352 1 342 191 235 263 287 272 293 299 274 269 277 278 251 341 300 47 56 21 9 354 344 340 19 360